This is the latest recevied weather packets stored in our database for station/object KJ5IIV. If no packets are shown the sender has not sent any weather packets the latest 10 day(s).
| Time | Temp. | Humidity | Pressure | Rain* | Wind** | Luminosity | Snow |
|---|---|---|---|---|---|---|---|
| 1777922783 | 27.22° C | 46% | 1011.9 hPa | 0 mm | - | 951 W/m² | - |
| 1777922481 | 26.67° C | 46% | 1011.8 hPa | 0 mm | - | 903 W/m² | - |
| 1777922179 | 27.22° C | 45% | 1012 hPa | 0 mm | - | 808 W/m² | - |
| 1777921875 | 26.67° C | 47% | 1012 hPa | 0 mm | - | 907 W/m² | - |
| 1777921572 | 26.67° C | 46% | 1012.2 hPa | 0 mm | - | 721 W/m² | - |
| 1777921268 | 26.67° C | 46% | 1012 hPa | 0 mm | - | 846 W/m² | - |
| 1777920965 | 26.67° C | 46% | 1012.3 hPa | 0 mm | - | 824 W/m² | - |
| 1777920661 | 26.11° C | 44% | 1012.4 hPa | 0 mm | - | 855 W/m² | - |
| 1777920357 | 26.11° C | 44% | 1012.6 hPa | 0 mm | - | 800 W/m² | - |
| 1777920052 | 26.67° C | 43% | 1012.6 hPa | 0 mm | - | 779 W/m² | - |
| 1777919749 | 26.67° C | 44% | 1012.7 hPa | 0 mm | - | 942 W/m² | - |
| 1777919448 | 26.67° C | 45% | 1012.6 hPa | 0 mm | - | 738 W/m² | - |
| 1777919144 | 26.11° C | 47% | 1012.6 hPa | 0 mm | - | 950 W/m² | - |
| 1777918842 | 26.11° C | 45% | 1012.8 hPa | 0 mm | - | 894 W/m² | - |
| 1777918539 | 26.11° C | 46% | 1012.9 hPa | 0 mm | - | 979 W/m² | - |
| 1777918237 | 26.67° C | 45% | 1012.9 hPa | 0 mm | - | 909 W/m² | - |
| 1777917935 | 26.67° C | 47% | 1013 hPa | 0 mm | - | 1015 W/m² | - |
| 1777917634 | 26.11° C | 47% | 1013.1 hPa | 0 mm | - | 958 W/m² | - |
| 1777917331 | 26.11° C | 45% | 1013.2 hPa | 0 mm | - | 730 W/m² | - |
| 1777917028 | 26.11° C | 45% | 1013.2 hPa | 0 mm | - | 799 W/m² | - |
| 1777916726 | 25.56° C | 47% | 1013.4 hPa | 0 mm | - | 973 W/m² | - |
| 1777916422 | 25.56° C | 47% | 1013.3 hPa | 0 mm | - | 783 W/m² | - |
| 1777916119 | 25.56° C | 47% | 1013.4 hPa | 0 mm | - | 913 W/m² | - |
| 1777915817 | 25.56° C | 46% | 1013.5 hPa | 0 mm | - | 828 W/m² | - |
| 1777915513 | 25.56° C | 44% | 1013.7 hPa | 0 mm | - | 762 W/m² | - |
* Rain latest hour (hover to see other rain measurements)
** Current wind speed in m/s (hover to see current wind gust speed)